STARLINK-32490 (62126 NORAD) Tracking and Keplerian Element Data

This shows tracking and keplerian element data for the satellite.

Feedback or suggestion? Click here.




ElementValue
Catalog62126
NameSTARLINK-32490
Epoch Orbit1174
Epoch Day34.93151019
Epoch Year2025
RAAN229.9288
Inclination43.002
Eccentricity0.0003209
Argument of Perigee253.3361
Mean Anonmoly106.7143
Mean Motion15.40760849
Decay Rate-0.00013119
L11 62126U 24222N 25034.93151019 -.00013119 00000+0 -30662-3 0 9998
L22 62126 43.0020 229.9288 0003209 253.3361 106.7143 15.40760849 11744



Live tracking and technical data element details for STARLINK-32490 (NORAD 62126). STARLINK-32490 can be tracked NOW for your location showing map with azimuth and elevation plus other details from your city location.







IsCatalogInMostPopularTable: catalog: 62126, numindb: 14
Update: records affected: 1



GetName: 62126 STARLINK-32490

Hit Count: updated at: Sun, 18 May 2025 22:33:30 GMT